www.pogodaiklimat.ru

Погода и климат >> Архив погоды >> Австралия >> Северная территория >> Маяк Кейп-Дон


ПОГОДА на Маяке Кейп-Дон

  • Прогноз погоды на Маяке Кейп-Дон
  • Монитор погоды на Маяке Кейп-Дон

АРХИВ ПОГОДЫ на Маяке Кейп-Дон

Время (UTC), дата Ветер
(напр.,м/с)
 
Видим.   Явления Облачность Т
(С)
Тd
(С)
f
(%)
Тe
(С)
Тes
(С)
Комфортность P
(гПа)
Po
(гПа)
Тmin
(С)
Tmax
(С)
R
(мм)
R24
(мм)
S
(см)
02 15.03 З 2 н/о н/о +31.2 +24.8 69 +44 +44 опасность
перегрева
1010.2 1005.2 +21.9
05 15.03 СЗ 2 н/о н/о +33.9 +24.2 57 +46 +46 опасность
перегрева
1006.7 1001.7
08 15.03 Ю 9 н/о туман н/о +28.5 +18.3 54 +33 +33 очень
душно
1006.7 1001.7
11 15.03 штиль 0 н/о {туман} н/о +24.3 +23.1 93 +32 +32 очень
душно
1008.6 1003.6 12
14 15.03 штиль 0 н/о н/о +23.9 +23.0 95 +32 +32 очень
душно
1009.3 1004.3 +34.4
17 15.03 СВ 2 н/о н/о +24.0 +23.1 95 +32 +32 очень
душно
1008.1 1003.1
20 15.03 штиль 0 н/о н/о +23.4 +22.7 96 +33 +33 очень
душно
1008.0 1003.0
23 15.03 штиль 0 н/о н/о +27.0 +24.5 86 +38 +38 очень
душно
1009.7 1004.7 12
02 16.03 ЮЗ 3 н/о н/о +32.5 +24.3 62 +45 +45 опасность
перегрева
1009.3 1004.3 +22.8
05 16.03 СЗ 3 н/о н/о +34.7 +23.1 51 +45 +45 опасность
перегрева
1006.0 1001.0
08 16.03 СЗ 1 н/о {туман} н/о +25.5 +23.9 91 +35 +35 очень
душно
1006.4 1001.4
11 16.03 С 1 н/о {туман} н/о +25.8 +24.6 93 +36 +36 очень
душно
1009.3 1004.3 9
14 16.03 штиль 0 н/о н/о +25.4 +24.4 94 +35 +35 очень
душно
1010.1 1005.1 +35.2
17 16.03 ЮВ 8 н/о в посл. час дождь {туман} н/о +23.7 +22.3 92 +31 +31 очень
душно
1010.1 1005.1 0.4
20 16.03 С 2 н/о {туман} н/о +22.5 +21.7 95 +30 +30 очень
душно
1008.2 1003.2
23 16.03 ЮЗ 1 н/о {туман} н/о +25.3 +22.8 86 +33 +33 очень
душно
1009.8 1004.8 12
02 17.03 СЗ 3 н/о н/о +30.6 +24.5 70 +43 +43 опасность
перегрева
1010.5 1005.5 +22.4
05 17.03 З 4 н/о н/о +34.1 +26.3 64 +51 +51 опасность
перегрева
1007.0 1002.0
08 17.03 В 6 н/о в посл. час дождь {туман} н/о +24.3 +21.8 86 +31 +31 очень
душно
1007.5 1002.5
11 17.03 штиль 0 н/о в посл. час дождь {туман} н/о +24.5 +23.5 94 +33 +33 очень
душно
1009.6 1004.6 9
14 17.03 штиль 0 н/о {туман} н/о +24.5 +23.6 95 +33 +33 очень
душно
1010.9 1005.9 +35.0
17 17.03 штиль 0 н/о {туман} н/о +24.2 +23.3 95 +32 +32 очень
душно
1009.0 1004.0 0.2
20 17.03 штиль 0 н/о {туман} н/о +23.7 +23.0 96 +31 +31 очень
душно
1008.9 1003.9
23 17.03 штиль 0 н/о {туман} н/о +26.8 +24.5 87 +38 +38 очень
душно
1009.5 1004.5 9
02 18.03 З 3 н/о н/о +31.9 +25.5 69 +46 +46 опасность
перегрева
1009.5 1004.5 +23.5
05 18.03 ЮЗ 2 н/о н/о +34.8 +25.3 58 +49 +49 опасность
перегрева
1006.3 1001.3
08 18.03 СЗ 5 н/о н/о +30.8 +23.5 65 +42 +42 опасность
перегрева
1005.0 1000.0
11 18.03 Ю 3 н/о {туман} н/о +23.9 +22.5 92 +31 +31 очень
душно
1008.8 1003.8 42
14 18.03 штиль 0 н/о н/о +23.9 +22.9 94 +32 +32 очень
душно
1009.7 1004.7 +35.6
17 18.03 штиль 0 н/о н/о +24.0 +23.3 96 +32 +32 очень
душно
1007.2 1002.2
20 18.03 штиль 0 н/о н/о +23.5 +22.8 96 +31 +31 очень
душно
1007.3 1002.3
23 18.03 штиль 0 н/о н/о +26.6 +24.6 89 +38 +38 очень
душно
1009.2 1004.2 42
02 19.03 З 4 н/о н/о +31.4 +25.0 69 +45 +45 опасность
перегрева
1009.1 1004.1 +23.0
05 19.03 З 2 н/о н/о +34.4 +25.2 59 +48 +48 опасность
перегрева
1006.2 1001.2
08 19.03 СЗ 2 н/о н/о +34.5 +25.0 58 +48 +48 опасность
перегрева
1004.8 999.8
11 19.03 С 4 н/о н/о +27.6 +24.4 83 +39 +39 очень
душно
1008.8 1003.8
14 19.03 С 2 н/о в посл. час дождь {туман} н/о +25.6 +24.0 91 +35 +35 очень
душно
1008.8 1003.8 +35.2
17 19.03 штиль 0 н/о {туман} н/о +24.9 +23.9 94 +34 +34 очень
душно
1007.1 1002.1 0.2
20 19.03 штиль 0 н/о н/о +24.3 +23.4 95 +33 +33 очень
душно
1006.7 1001.7
23 19.03 З 2 н/о н/о +26.7 +25.3 92 +39 +39 очень
душно
1008.6 1003.6 0.2
02 20.03 З 4 н/о н/о +32.3 +24.6 64 +45 +45 опасность
перегрева
1009.1 1004.1 +23.8
05 20.03 З 5 н/о н/о +34.3 +25.4 60 +49 +49 опасность
перегрева
1006.3 1001.3
08 20.03 СЗ 3 н/о н/о +33.7 +24.6 59 +47 +47 опасность
перегрева
1005.0 1000.0
11 20.03 З 5 н/о н/о +27.3 +20.9 68 +34 +34 очень
душно
1008.4 1003.4
14 20.03 С 3 н/о н/о +26.7 +24.2 86 +37 +37 очень
душно
1008.3 1003.3 +35.2
17 20.03 С 1 н/о н/о +25.5 +24.1 92 +35 +35 очень
душно
1006.3 1001.3
20 20.03 С 1 н/о н/о +25.1 +24.4 96 +35 +35 очень
душно
1006.5 1001.5
23 20.03 штиль 0 н/о н/о +27.8 +26.4 92 +42 +42 опасность
перегрева
1008.6 1003.6
02 21.03 З 5 н/о н/о +32.6 +26.6 71 +50 +50 опасность
перегрева
1007.9 1002.9 +24.7
05 21.03 З 5 н/о н/о +34.4 +26.1 62 +50 +50 опасность
перегрева
1005.1 1000.1
08 21.03 СЗ 3 н/о н/о +34.2 +25.0 59 +48 +48 опасность
перегрева
1003.5 998.5
11 21.03 З 4 н/о в посл. час дождь {туман} н/о +24.9 +23.0 89 +33 +33 очень
душно
1006.5 1001.5 1
14 21.03 СВ 2 н/о {туман} н/о +24.4 +23.2 93 +33 +33 очень
душно
1006.8 1001.8 +35.3
17 21.03 штиль 0 н/о {туман} н/о +24.0 +23.1 95 +32 +32 очень
душно
1006.0 1001.0 0.6
23 21.03 С 2 н/о {туман} н/о +23.9 +22.9 94 +32 +32 очень
душно
1008.2 1003.2 12

 

Местоположение метеостанции Маяк Кейп-Дон (Северная территория, Австралия): широта -13.83 долгота 131.18 высота над уровнем моря 50 м.

В архиве по умолчанию представлена погода на Маяке Кейп-Дон за последнюю неделю. Архивные данные за месяц целиком и за предыдущие месяцы, начиная с января 2011 года, Вы можете получить, выбрав интересующий диапазон дат из раскрывающегося списка и нажав кнопку "Ввод!".


*Определитесь, кто Вы:
робот инопланетянин человек

Внимание! Время в таблицах - всемирное. Для получения местного времени необходимо прибавить поправку, которая равна 9.5 ч.

Смотрите также архив погоды в соседних городах и на ближайших метеорологических станциях:

Погода в Батчелоре (Северная территория, Австралия) (88 км)
Погода в Манбуллу Ксиро (Северная территория, Австралия) (131 км)
Погода в Милд Пойнт (Северная территория, Австралия) (137 км)
Погода в Тиндале (Северная территория, Австралия) (148 км)
Погода на Острове Дам-ин-Мирре (Северная территория, Австралия) (160 км)
Погода в Дарвине (Северная территория, Австралия) (161 км)
Погода в Порт Китс (Северная территория, Австралия) (184 км)
Погода в Пойнт Стьюарт (Северная территория, Австралия) (193 км)
Погода на Центральном плато Арнем (Северная территория, Австралия) (213 км)
Погода в Джаберу (Северная территория, Австралия) (227 км)

Пояснения к столбцам:

Ветер - указаны скорость ветра в м/с - средняя за 10 мин, порывы в срок и между сроками (в фигурных скобках) и направление, откуда дует ветер: С - северный, СВ - северо-восточный, В - восточный, ЮВ - юго-восточный, Ю - южный, ЮЗ - юго-западный, З - западный, СЗ - северо-западный.
Видимость - горизонтальная дальность видимости в метрах или километрах. При видимости от 1 до 10 км при отсутствии осадков обычно наблюдается дымка, при ухудшении видимости до 1 км и менее - туман. В сухую погоду видимость может ухудшаться дымом, пылью или мглою.
Явления - указаны атмосферные явления, наблюдавшиеся в срок или в последний час перед сроком; фигурными скобками обозначены явления, наблюдавшиеся между сроками (за 1-3 часа до срока); квадратными скобками обозначены град или гололедные отложения с указанием их диаметра в мм.
Облачность - указаны через наклонную черту общая и нижняя облачность в баллах и высота нижней границы облаков в метрах; квадратными скобками обозначены формы облаков: Ci - перистые, Cs - перисто-слоистые, Cc - перисто-кучевые, Ac - высококучевые, As - высокослоистые, Sc - слоисто-кучевые, Ns - слоисто-дождевые, Cu - кучевые, Cb - кучево-дождевые. Подробнее классификацию облаков см. в Атласе облаков (PDF).
T - Температура воздуха - температура, измеренная на высоте 2 м над землей.
Td - Температура точки росы - температура, при понижении до которой содержащийся в воздухе водяной пар достигнет насыщения.
f - Относительная влажность воздуха - влажноcть воздуха, измеренная на высоте 2 м над землей.
Te - Эффективная температура - температура, которую ощущает одетый по сезону человек в тени. Характеристика душности погоды. При расчете учитывается влияние влажности воздуха и скорости ветра на теплоощущения человека.
Tes - Эффективная температура на солнце - температура, которую ощущает человек, с поправкой на солнечный нагрев. Характеристика знойности погоды. Зависит от высоты солнца над горизонтом, облачности и скорости ветра. Ночью, в пасмурную погоду, а также при ветре 12 м/с и более поправка равна нулю.
P - Атмосферное давление - приведенное к уровню моря атмосферное давление.
Po - Атмосферное давление - измеренное на уровне метеостанции атмосферное давление.
Tmin - Минимальная температура - минимум температуры воздуха на высоте 2 м над землей.
Tmax - Максимальная температура - максимум температуры воздуха на высоте 2 м над землей.
R - Количество осадков - Количество выпавших осадков за период времени, мм. При наведении курсора мыши на число - период времени, за который выпало указанное количество осадков.
R24 - Количество осадков - Количество выпавших осадков за 24 часа, мм.
S - Снежный покров - Высота снежного покрова, см. При наведении курсора мыши на число - состояние снежного покрова и степень покрытия местности в баллах.